| time (UTC) | temp F | wind direction | speed MPH | gust MPH | rain 1hr in | rain 24hr in | rain mn in | humidity % | barometer mb |
| 20260510141508 | 74 | 97 | 5.0 | 9.0 | 0.00 | 0.00 | 0.00 | 52 | 1003.3 |
| 20260510140007 | 72 | 118 | 7.0 | 9.0 | 0.00 | 0.00 | 0.00 | 54 | 1003.0 |
| 20260510134506 | 71 | 115 | 5.0 | 7.0 | 0.00 | 0.00 | 0.00 | 58 | 1002.9 |
| 20260510133005 | 69 | 138 | 7.0 | 9.0 | 0.00 | 0.00 | 0.00 | 61 | 1002.6 |
| 20260510131505 | 67 | 120 | 8.0 | 12.0 | 0.00 | 0.00 | 0.00 | 64 | 1002.5 |
| 20260510130006 | 66 | 131 | 9.0 | 13.0 | 0.00 | 0.00 | 0.00 | 66 | 1002.3 |
| 20260510124506 | 65 | 130 | 9.0 | 12.0 | 0.00 | 0.00 | 0.00 | 66 | 1002.2 |
| 20260510123006 | 65 | 135 | 8.0 | 11.0 | 0.00 | 0.00 | 0.00 | 66 | 1002.0 |
| 20260510121504 | 65 | 123 | 9.0 | 12.0 | 0.00 | 0.00 | 0.00 | 64 | 1001.7 |
| 20260510120001 | 66 | 123 | 10.0 | 12.0 | 0.00 | 0.00 | 0.00 | 62 | 1001.6 |
| 20260510114503 | 66 | 121 | 8.0 | 10.0 | 0.00 | 0.00 | 0.00 | 60 | 1001.5 |
| 20260510113103 | 66 | 115 | 8.0 | 10.0 | 0.00 | 0.00 | 0.00 | 59 | 1001.6 |
| 20260510113001 | 66 | 117 | 8.0 | 10.0 | 0.00 | 0.00 | 0.00 | 59 | 1001.5 |
| 20260510111602 | 66 | 119 | 9.0 | 11.0 | 0.00 | 0.00 | 0.00 | 58 | 1001.5 |
| 20260510110058 | 66 | 121 | 10.0 | 13.0 | 0.00 | 0.00 | 0.00 | 56 | 1001.4 |
| 20260510104556 | 67 | 124 | 10.0 | 12.0 | 0.00 | 0.00 | 0.00 | 53 | 1001.3 |
| 20260510103054 | 67 | 115 | 9.0 | 12.0 | 0.00 | 0.00 | 0.00 | 51 | 1001.2 |
| 20260510101559 | 67 | 120 | 10.0 | 12.0 | 0.00 | 0.00 | 0.00 | 51 | 1001.2 |
| 20260510100125 | 67 | 117 | 11.0 | 14.0 | 0.00 | 0.00 | 0.00 | 49 | 1001.1 |
| 20260510094557 | 67 | 120 | 9.0 | 11.0 | 0.00 | 0.00 | 0.00 | 46 | 1001.2 |
| 20260510093054 | 67 | 121 | 9.0 | 12.0 | 0.00 | 0.00 | 0.00 | 45 | 1001.0 |
| 20260510091554 | 68 | 128 | 10.0 | 16.0 | 0.00 | 0.00 | 0.00 | 41 | 1000.8 |
| 20260510090047 | 68 | 134 | 9.0 | 13.0 | 0.00 | 0.00 | 0.00 | 40 | 1001.0 |
| 20260510084544 | 69 | 135 | 10.0 | 13.0 | 0.00 | 0.00 | 0.00 | 39 | 1001.1 |
| 20260510083046 | 69 | 139 | 10.0 | 14.0 | 0.00 | 0.00 | 0.00 | 38 | 1001.1 |
| 20260510081545 | 69 | 137 | 11.0 | 13.0 | 0.00 | 0.00 | 0.00 | 37 | 1001.3 |
| 20260510080040 | 70 | 129 | 10.0 | 12.0 | 0.00 | 0.00 | 0.00 | 35 | 1001.5 |
| 20260510074539 | 71 | 139 | 10.0 | 13.0 | 0.00 | 0.00 | 0.00 | 33 | 1001.6 |
| 20260510073033 | 73 | 137 | 11.0 | 14.0 | 0.00 | 0.00 | 0.00 | 31 | 1001.6 |
| 20260510071538 | 74 | 150 | 12.0 | 17.0 | 0.00 | 0.00 | 0.00 | 30 | 1001.6 |
| 20260510070027 | 74 | 155 | 13.0 | 17.0 | 0.00 | 0.00 | 0.00 | 30 | 1001.6 |
| 20260510064523 | 75 | 155 | 12.0 | 17.0 | 0.00 | 0.00 | 0.00 | 28 | 1001.8 |
| 20260510063024 | 76 | 165 | 15.0 | 18.0 | 0.00 | 0.00 | 0.00 | 27 | 1001.7 |
| 20260510061534 | 77 | 182 | 15.0 | 20.0 | 0.00 | 0.00 | 0.00 | 27 | 1001.8 |
| 20260510060016 | 78 | 169 | 17.0 | 23.0 | 0.00 | 0.00 | 0.00 | 26 | 1001.8 |
| 20260510054513 | 79 | 167 | 19.0 | 26.0 | 0.00 | 0.00 | 0.00 | 25 | 1001.8 |
| 20260510053010 | 80 | 167 | 21.0 | 26.0 | 0.00 | 0.00 | 0.00 | 24 | 1001.8 |
| 20260510051508 | 80 | 170 | 19.0 | 24.0 | 0.00 | 0.00 | 0.00 | 24 | 1001.8 |
| 20260510050006 | 80 | 169 | 18.0 | 23.0 | 0.00 | 0.00 | 0.00 | 23 | 1001.9 |
| 20260510044504 | 81 | 165 | 22.0 | 26.0 | 0.00 | 0.00 | 0.00 | 23 | 1001.9 |
| 20260510043001 | 81 | 162 | 20.0 | 27.0 | 0.00 | 0.00 | 0.00 | 22 | 1001.8 |
| 20260510041559 | 82 | 156 | 19.0 | 24.0 | 0.00 | 0.00 | 0.00 | 22 | 1001.8 |
| 20260510034605 | 82 | 154 | 17.0 | 21.0 | 0.00 | 0.00 | 0.00 | 20 | 1001.5 |
| 20260510033113 | 83 | 142 | 16.0 | 22.0 | 0.00 | 0.00 | 0.00 | 19 | 1001.4 |
| 20260510031552 | 84 | 146 | 16.0 | 22.0 | 0.00 | 0.00 | 0.00 | 17 | 1001.3 |
| 20260510030051 | 85 | 157 | 16.0 | 21.0 | 0.00 | 0.00 | 0.00 | 15 | 1001.1 |
| 20260510024555 | 86 | 144 | 16.0 | 20.0 | 0.00 | 0.00 | 0.00 | 14 | 1001.0 |
| 20260510023046 | 86 | 149 | 13.0 | 15.0 | 0.00 | 0.00 | 0.00 | 13 | 1000.8 |
| 20260510021544 | 86 | 144 | 11.0 | 13.0 | 0.00 | 0.00 | 0.00 | 13 | 1000.6 |
| 20260510020046 | 88 | 147 | 10.0 | 12.0 | 0.00 | 0.00 | 0.00 | 12 | 1000.5 |
| 20260510014543 | 89 | 146 | 10.0 | 14.0 | 0.00 | 0.00 | 0.00 | 12 | 1000.3 |
| 20260510013042 | 90 | 144 | 10.0 | 15.0 | 0.00 | 0.00 | 0.00 | 11 | 1000.1 |
| 20260510011551 | 92 | 146 | 9.0 | 14.0 | 0.00 | 0.00 | 0.00 | 9 | 1000.1 |
| 20260510010043 | 92 | 173 | 8.0 | 12.0 | 0.00 | 0.00 | 0.00 | 9 | 1000.1 |
| 20260510004545 | 93 | 153 | 11.0 | 19.0 | 0.00 | 0.00 | 0.00 | 9 | 1000.1 |
| 20260510003100 | 93 | 148 | 9.0 | 16.0 | 0.00 | 0.00 | 0.00 | 9 | 1000.1 |
| 20260510001542 | 93 | 153 | 13.0 | 17.0 | 0.00 | 0.00 | 0.00 | 9 | 1000.2 |
| 20260510000046 | 93 | 146 | 12.0 | 17.0 | 0.00 | 0.00 | 0.00 | 10 | 1000.2 |
| 20260509234558 | 94 | 117 | 4.0 | 9.0 | 0.00 | 0.00 | 0.00 | 9 | 1000.4 |
| 20260509233041 | 94 | 26 | 1.0 | 6.0 | 0.00 | 0.00 | 0.00 | 8 | 1000.5 |
| 20260509231548 | 93 | 219 | 9.0 | 12.0 | 0.00 | 0.00 | 0.00 | 9 | 1000.7 |
| 20260509230034 | 93 | 200 | 7.0 | 18.0 | 0.00 | 0.00 | 0.00 | 9 | 1000.8 |
| 20260509224532 | 94 | 137 | 4.0 | 9.0 | 0.00 | 0.00 | 0.00 | 9 | 1000.9 |
| 20260509223029 | 94 | 243 | 3.0 | 12.0 | 0.00 | 0.00 | 0.00 | 9 | 1001.1 |
| 20260509221526 | 94 | 214 | 6.0 | 13.0 | 0.00 | 0.00 | 0.00 | 10 | 1001.2 |
| 20260509220026 | 93 | 86 | 7.0 | 11.0 | 0.00 | 0.00 | 0.00 | 9 | 1001.3 |
| 20260509214522 | 93 | 169 | 12.0 | 17.0 | 0.00 | 0.00 | 0.00 | 10 | 1001.6 |
| 20260509213020 | 93 | 201 | 7.0 | 13.0 | 0.00 | 0.00 | 0.00 | 9 | 1001.8 |
| 20260509211516 | 93 | 170 | 13.0 | 18.0 | 0.00 | 0.00 | 0.00 | 10 | 1002.1 |
| 20260509210021 | 93 | 178 | 13.0 | 20.0 | 0.00 | 0.00 | 0.00 | 9 | 1002.3 |
| 20260509204510 | 92 | 205 | 6.0 | 16.0 | 0.00 | 0.00 | 0.00 | 10 | 1002.6 |
| 20260509203009 | 91 | 188 | 8.0 | 17.0 | 0.00 | 0.00 | 0.00 | 10 | 1003.0 |
| 20260509201508 | 91 | 247 | 3.0 | 14.0 | 0.00 | 0.00 | 0.00 | 11 | 1003.4 |
| 20260509200007 | 91 | 158 | 15.0 | 19.0 | 0.00 | 0.00 | 0.00 | 11 | 1003.5 |
| 20260509194600 | 91 | 157 | 17.0 | 20.0 | 0.00 | 0.00 | 0.00 | 11 | 1003.6 |
| 20260509194502 | 91 | 173 | 12.0 | 23.0 | 0.00 | 0.00 | 0.00 | 11 | 1003.6 |
| 20260509193057 | 90 | 153 | 3.0 | 14.0 | 0.00 | 0.00 | 0.00 | 11 | 1003.9 |
| 20260509191553 | 90 | 189 | 12.0 | 16.0 | 0.00 | 0.00 | 0.00 | 13 | 1004.0 |
| 20260509190051 | 89 | 191 | 10.0 | 19.0 | 0.00 | 0.00 | 0.00 | 14 | 1004.2 |
| 20260509184548 | 89 | 198 | 11.0 | 18.0 | 0.00 | 0.00 | 0.00 | 15 | 1004.5 |
| 20260509183111 | 89 | 171 | 9.0 | 16.0 | 0.00 | 0.00 | 0.00 | 16 | 1004.7 |
| 20260509181600 | 88 | 158 | 10.0 | 21.0 | 0.00 | 0.00 | 0.00 | 17 | 1005.0 |
| 20260509180040 | 87 | 169 | 13.0 | 19.0 | 0.00 | 0.00 | 0.00 | 17 | 1005.2 |
| 20260509174537 | 87 | 164 | 19.0 | 23.0 | 0.00 | 0.00 | 0.00 | 18 | 1005.4 |
| 20260509173034 | 86 | 205 | 14.0 | 21.0 | 0.00 | 0.00 | 0.00 | 18 | 1005.6 |
| 20260509171532 | 85 | 182 | 13.0 | 20.0 | 0.00 | 0.00 | 0.00 | 19 | 1005.7 |
| 20260509170032 | 84 | 165 | 12.0 | 24.0 | 0.00 | 0.00 | 0.00 | 21 | 1005.9 |
| 20260509164531 | 83 | 171 | 13.0 | 17.0 | 0.00 | 0.00 | 0.00 | 21 | 1006.0 |
| 20260509163033 | 82 | 141 | 11.0 | 19.0 | 0.00 | 0.00 | 0.00 | 23 | 1006.2 |
| 20260509161534 | 80 | 144 | 13.0 | 17.0 | 0.00 | 0.00 | 0.00 | 23 | 1006.4 |
| 20260509160031 | 80 | 146 | 13.0 | 18.0 | 0.00 | 0.00 | 0.00 | 23 | 1006.6 |
| 20260509154529 | 79 | 163 | 12.0 | 17.0 | 0.00 | 0.00 | 0.00 | 24 | 1006.6 |
| 20260509153028 | 77 | 200 | 6.0 | 10.0 | 0.00 | 0.00 | 0.00 | 26 | 1006.7 |
| 20260509151528 | 75 | 142 | 7.0 | 11.0 | 0.00 | 0.00 | 0.00 | 31 | 1006.6 |
| 20260509150029 | 73 | 134 | 10.0 | 14.0 | 0.00 | 0.00 | 0.00 | 35 | 1006.6 |
| 20260509144536 | 71 | 135 | 10.0 | 12.0 | 0.00 | 0.00 | 0.00 | 37 | 1006.7 |
| 20260509143028 | 70 | 146 | 11.0 | 14.0 | 0.00 | 0.00 | 0.00 | 38 | 1006.8 |